This is the latest recevied weather packets stored in our database for station/object IZ5MMH-1. If no packets are shown the sender has not sent any weather packets the latest 10 day(s).
| Time | Temp. | Humidity | Pressure | Rain* | Wind** | Luminosity | Snow |
|---|---|---|---|---|---|---|---|
| 1788553527 | 22.78° C | 53% | 1019.8 hPa | - | - | - | - |
| 1788552926 | 22.78° C | 52% | 1019.7 hPa | - | - | - | - |
| 1788552326 | 23.33° C | 53% | 1019.6 hPa | - | - | - | - |
| 1788551727 | 23.33° C | 54% | 1019.7 hPa | - | - | - | - |
| 1788551126 | 23.89° C | 50% | 1019.8 hPa | - | - | - | - |
| 1788550527 | 23.89° C | 50% | 1019.6 hPa | - | - | - | - |
| 1788549927 | 23.89° C | 48% | 1019.6 hPa | - | - | - | - |
| 1788549326 | 23.89° C | 50% | 1019.5 hPa | - | - | - | - |
| 1788548727 | 24.44° C | 49% | 1019.5 hPa | - | - | - | - |
| 1788548126 | 25° C | 46% | 1019.4 hPa | - | - | - | - |
| 1788547527 | 25.56° C | 46% | 1019.3 hPa | - | - | - | - |
| 1788546927 | 25.56° C | 45% | 1019.2 hPa | - | - | - | - |
| 1788546326 | 26.11° C | 44% | 1019 hPa | - | - | - | - |
| 1788545726 | 26.67° C | 43% | 1018.8 hPa | - | - | - | - |
| 1788545126 | 27.22° C | 45% | 1018.7 hPa | - | - | - | - |
| 1788544527 | 28.33° C | 41% | 1018.5 hPa | - | - | - | - |
| 1788543926 | 28.89° C | 39% | 1018.4 hPa | - | - | - | - |
| 1788543326 | 30° C | 39% | 1018.4 hPa | - | - | - | - |
| 1788542727 | 30.56° C | 37% | 1018.4 hPa | - | - | - | - |
| 1788542126 | 30.56° C | 37% | 1018.3 hPa | - | - | - | - |
| 1788541526 | 31.11° C | 37% | 1018.4 hPa | - | - | - | - |
| 1788540927 | 31.67° C | 35% | 1018.5 hPa | - | - | - | - |
| 1788540326 | 32.78° C | 34% | 1018.4 hPa | - | - | - | - |
| 1788539725 | 33.33° C | 34% | 1018.5 hPa | - | - | - | - |
| 1788539126 | 33.89° C | 32% | 1018.5 hPa | - | - | - | - |
* Rain since midnight (hover to see other rain measurements)
** Current wind speed in m/s (hover to see current wind gust speed)